Regional Weather Roundup
Issued by NWS

Home | Current Version | Previous Version | Text Only | Print | Product List | Glossary On
Versions: 1 2 3 4 5 6 7 8 9 10 11 12 13 14 15 16 17 18 19 20 21 22 23 24 25 26 27 28 29 30 31 32 33 34 35 36 37 38 39 40 41 42 43 44 45 46 47 48 49 50
000
ASUS46 KLOX 290713
RWRCA

SOUTHERN CALIFORNIA WEATHER ROUNDUP
NATIONAL WEATHER SERVICE OXNARD CALIFORNIA
1200 AM PDT WED JUL 29 2015

NOTE: "FAIR" INDICATES FEW OR NO CLOUDS BELOW 12,000 FEET WITH NO
SIGNIFICANT WEATHER AND/OR OBSTRUCTIONS TO VISIBILITY.

  -  STATIONS PRECEEDED BY AN ASTERISK (*) ARE NOT NWS OR FAA
     STATIONS AND ARE NOT SUBJECT TO NWS AND FAA QUALITY CONTROL.

CAZ041-042-087-290800-
LA AND ORANGE COUNTY COASTAL AREAS


CITY           SKY/WX    TMP DP  RH WIND       PRES   REMARKS
L.A. DOWNTOWN  CLOUDY    68  63  84 CALM      29.93R
L.A. AIRPORT   MOCLDY    67  64  90 W8        29.93R
LONG BEACH     CLEAR     71  65  81 NW6       29.92R

CITY           SKY/WX    TMP DP  RH WIND       PRES   REMARKS
AVALON           N/A     63 N/A N/A MISG        N/A
FULLERTON      CLEAR     71  64  78 CALM      29.91R
HAWTHORNE      CLOUDY    69  64  84 W5        29.93R
*LOS ALAMITOS  FAIR      69  66  93 S1        29.92R
*REDONDO BEACH   N/A     67  63  86 CALM      29.93R
SANTA ANA      MOCLDY    69  64  84 S3        29.92R
STA MONICA APT CLOUDY    66  63  90 W5        29.93R
*STA MON PIER    N/A     66  64  93 CALM      29.93R
*UCLA            N/A     64  61  88 CALM      29.91R

$$

CAZ547-548-048-290800-
LA COUNTY VALLEYS AND INLAND EMPIRE


CITY           SKY/WX    TMP DP  RH WIND       PRES   REMARKS
BURBANK        CLEAR     69  62  78 SE7       29.93R
VAN NUYS       CLEAR     70  62  76 E6        29.92R

CITY           SKY/WX    TMP DP  RH WIND       PRES   REMARKS
CORONA AIRPORT SUNNY     68  63  84 CALM      29.93R
*CHATSWORTH      N/A     72  60  65 CALM      29.91R
CHINO          CLEAR     71  63  75 NW6       29.94R
MARCH AFB      CLEAR     72  62  71 NW6       29.95S
*NORTHRIDGE      N/A     70  59  68 NE2         N/A
ONTARIO        CLEAR     69  62  78 W5        29.93R
*PASADENA        N/A     68  64  88 CALM        N/A
RIVERSIDE      CLEAR     72  63  73 W5        29.94R
SAN BERNARDINO NOT AVBL
*SAN GABRIEL     N/A     69  64  84 SW5       29.99R
*WHITEMAN AP   NOT AVBL
*WOODLAND HILL   N/A    N/A N/A N/A NE2         N/A

$$

CAZ054-055-290800-
LA AND SAN BERNARDINO COUNTY MOUNTAINS


CITY           SKY/WX    TMP DP  RH WIND       PRES   REMARKS
*BIG BEAR AIRP SUNNY     50  32  50 CALM      30.31S
SANDBERG       CLEAR     71  43  36 W13       30.12S

$$

CAZ028-029-059-060-099-290800-
ANTELOPE VALLEY AND SURROUNDING AREAS


CITY           SKY/WX    TMP DP  RH WIND       PRES   REMARKS
LANCASTER      CLEAR     78  39  24 W13       29.96R
PALMDALE       CLEAR     75  48  38 S6        29.98R

CITY           SKY/WX    TMP DP  RH WIND       PRES   REMARKS
29 PALMS       CLEAR     82  41  23 NE3       30.00R
BARSTOW/DAGGET CLEAR     86  21   9 W9        29.92R
BISHOP         CLEAR     72  28  19 W3        30.09R
CHINA LAKE     CLEAR     81  25  12 SW9       29.92R
EDWARDS AFB    CLEAR     74  41  30 S7        29.94R
MOJAVE         CLEAR     79  43  27 SW7       29.97S
NEEDLES        PTCLDY    98  41  14 W12       29.82R HX  93
VICTORVILLE    CLEAR     73  43  33 CALM      30.01R

$$

CAZ039-040-290800-
VENTURA AND SANTA BARBARA COUNTY COAST


CITY           SKY/WX    TMP DP  RH WIND       PRES   REMARKS
CAMARILLO      CLOUDY    66  62  87 CALM      29.91R
OXNARD AIRPORT CLOUDY    66  62  87 W5        29.91R
*POINT MUGU    CLOUDY    68  62  81 CALM      29.92R
SBA APT/GOLETA CLOUDY    64  61  90 SE8       29.90R FOG
*SANTA BARBARA   N/A     66  60  81 CALM      29.98R
*VENTURA         N/A     66  61  86 CALM      29.53R

$$

CAZ044-045-290800-
VENTURA COUNTY VALLEYS


CITY           SKY/WX    TMP DP  RH WIND       PRES   REMARKS
*SIMI VALLEY     N/A     65  60  82 CALM      29.85R
*OJAI            N/A     62  58  87 CALM      29.85R
*FILLMORE        N/A     64  58  81 CALM      29.81S

$$

CAZ053-290800-
VENTURA COUNTY MOUNTAINS


CITY           SKY/WX    TMP DP  RH WIND       PRES   REMARKS

$$

CAZ034-035-036-290800-
CENTRAL COAST AND SANTA YNEZ VALLEY


CITY           SKY/WX    TMP DP  RH WIND       PRES   REMARKS
SAN LUIS OBISP CLOUDY    60  57  89 CALM      29.91F
SANTA MARIA    CLOUDY    61  59  93 MISG      29.92S FOG

CITY           SKY/WX    TMP DP  RH WIND       PRES   REMARKS
*CAL POLY SLO    N/A     59  59 100 CALM        N/A
*LOMPOC        CLOUDY    61  55  82 W5        29.93S
*PISMO BEACH     N/A     60  59  94 CALM      29.91F
*SANTA YNEZ    FAIR      59  54  82 CALM      29.92S

$$

CAZ037-038-051-290800-
SAN LUIS OBISPO COUNTY INTERIOR AND CUYAMA VALLEY


CITY           SKY/WX    TMP DP  RH WIND       PRES   REMARKS
*CUYAMA          N/A     72  47  41 SE1       29.85R
PASO ROBLES    CLEAR     69  52  54 CALM      29.90S HAZE

$$

CAZ032-033-061-290800-
SOUTHERN DESERTS


CITY           SKY/WX    TMP DP  RH WIND       PRES   REMARKS
BLYTHE         MOCLDY    98  63  31 S14       29.80R HX 100
IMPERIAL       CLEAR     95  58  28 S9        29.76S HX  94
PALM SPRINGS   CLEAR     90  58  33 NW6       29.84R
THERMAL        CLEAR     87  62  43 N5        29.76R

$$

ELSEWHERE ACROSS THE WESTERN UNITED STATES AND MEXICO


CITY           SKY/WX    TMP DP  RH WIND       PRES   REMARKS
DENVER, CO     PTCLDY    60  44  55 S9        30.29S
GRAND CANYON,  PTCLDY    52  24  33 NE5       30.29R
HONOLULU, HI   MOCLDY    82  72  69 E9        29.95R
KAHULUI, MAUI  PTCLDY    81  70  69 E6        29.94R
LAKE TAHOE, CA CLEAR     55  36  48 CALM      30.29R
LAS VEGAS, NV  CLEAR     90  31  12 W3        29.89R
MAMMOTH LAKES, FAIR      57  27  30 W6        30.34R
MEXICO CITY, M MOCLDY    63  48  59 NW8       30.39S
PHOENIX, AZ    CLOUDY    90  63  40 SE9G21    29.90R HX  91
PORTLAND, OR   CLEAR     72  53  51 W10       30.11S
RENO, NV       CLEAR     71  27  19 CALM      30.19R
SALT LAKE CITY CLEAR     60  31  33 S7        30.24S
SAN DIEGO, CA  MOCLDY    70  63  78 SW5       29.94R
SAN FRANCISCO, CLEAR     66  56  70 W6        29.88R
SAN JOSE, CA   PTCLDY    74  50  42 CALM      29.87F
SEATTLE, WA    CLEAR     64  51  62 N5        30.21S
TIJUANA, MEX   CLEAR     66  59  77 NW6       29.96R

$$

STATION/POSITION TIME  TEMP    WIND        PRES    VSBY  WAVE
                       AIR SEA DIR/SP/G                  HT/PER
                 (UTC) (F)     (DEG/KT/KT) (MB)    (MI)  (FT/S)
POINT ARGUELLO B NOT AVBL
WEST SANTA BARBA 0650   59 60  310/ 17/ 19 1011.6R         6/16
POINT CONCEPTION NOT AVBL
EAST SANTA BARBA 0700   62 67  230/ 12/ 14 1013.0R
SANTA MONICA BAY 0650   67 72   10/  2/  2 1013.2R         3/16



USA.gov is the U.S. government's official web portal to all federal, state and local government web resources and services.